South Haven, MI

1:24 PM EDT on June 28, 2017 (GMT -0400)
South Haven

Weather History for KLWA - January, 2012

Change the Weather History Date:

Friday, January 13, 2012

  Actual Average (KBEH) Record (KBEH)
Temperature  
Mean Temperature 26 °F -  
Max Temperature 32 °F 31 °F 59 °F (1950)
Min Temperature 21 °F 16 °F -8 °F (2015)
Degree Days  
Heating Degree Days 38    
Moisture  
Dew Point 25 °F    
Average Humidity 86    
Maximum Humidity 93    
Minimum Humidity 75    
Precipitation  
Precipitation 0.00 in - - ()
Sea Level Pressure  
Sea Level Pressure 29.67 in    
Wind  
Wind Speed 10 mph (WNW)    
Max Wind Speed 20 mph    
Max Gust Speed 32 mph    
Visibility 2 miles    
Events Snow    
Averages and records for this station are not official NWS values.
T = Trace of Precipitation, MM = Missing Value Source: NWS Daily Summary

Daily Weather History Graph

Daily Weather History Graph

Search for Another Location

Airport or City:

Trip Planner

Search our weather history database for the weather conditions in past years. The results will help you decide how hot, cold, wet, or windy it might be!

Date:

Astronomy

Jan. 13, 2012 Rise Set
Actual Time 8:12 AM EST 5:34 PM EST
Civil Twilight 7:41 AM EST 6:06 PM EST
Nautical Twilight 7:06 AM EST 6:40 PM EST
Astronomical Twilight 6:32 AM EST 7:14 PM EST
Moon 10:54 PM EST (1/13) 10:20 AM EST (1/13)
Length of Visible Light 10h 24m
Length of Day
9h 22m
Waning Gibbous, 79% of the Moon is Illuminated
Jan 13
Waning Gibbous
Jan 16
Last Quarter
Jan 23
New
Jan 30
First Quarter
Feb 7
Full

Hourly Weather History & Observations

Time (EST) Temp. Windchill Dew Point Humidity Pressure Visibility Wind Dir Wind Speed Gust Speed Precip Events Conditions
12:14 AM 21.2 °F - 19.4 °F 93% 29.36 in 1.5 mi Calm Calm - N/A Snow Light Snow
12:35 AM 21.2 °F - 19.4 °F 93% 29.36 in 1.8 mi Calm Calm - N/A Snow Light Snow
12:55 AM 21.2 °F - 19.4 °F 93% 29.37 in 1.2 mi Calm Calm - N/A Snow Snow
1:15 AM 23.0 °F - 21.2 °F 93% 29.37 in 1.5 mi Calm Calm - N/A Snow Light Snow
1:35 AM 23.0 °F - 21.2 °F 93% 29.38 in 1.5 mi Calm Calm - N/A Snow Light Snow
1:54 AM 23.0 °F - 21.2 °F 93% 29.38 in 1.5 mi Calm Calm - N/A Snow Light Snow
2:15 AM 23.0 °F - 21.2 °F 93% 29.40 in 1.0 mi Calm Calm - N/A Snow Snow
2:34 AM 26.6 °F 20.0 °F 24.8 °F 93% 29.41 in 0.8 mi North 5.8 mph - N/A Snow Snow
2:55 AM 32.0 °F 20.8 °F 30.2 °F 93% 29.41 in 0.8 mi NNW 17.3 mph 26.5 mph N/A Snow Snow
3:15 AM 32.0 °F 21.6 °F 30.2 °F 93% 29.42 in 1.0 mi NW 15.0 mph 25.3 mph N/A Snow Snow
3:34 AM 32.0 °F 20.5 °F 30.2 °F 93% 29.44 in 1.0 mi NW 18.4 mph 27.6 mph N/A Snow Snow
4:15 AM 30.2 °F 18.1 °F 28.4 °F 93% 29.46 in 1.5 mi NW 18.4 mph 25.3 mph N/A Snow Light Snow
4:35 AM 30.2 °F 17.8 °F 28.4 °F 93% 29.47 in 1.5 mi NW 19.6 mph 27.6 mph N/A Snow Light Snow
4:55 AM 30.2 °F 17.8 °F 28.4 °F 93% 29.48 in 1.8 mi WNW 19.6 mph 28.8 mph N/A Snow Light Snow
5:14 AM 30.2 °F 20.2 °F 26.6 °F 86% 29.49 in 1.5 mi NW 12.7 mph 27.6 mph N/A Snow Light Snow
5:35 AM 28.4 °F 16.2 °F 26.6 °F 93% 29.50 in 1.8 mi WNW 17.3 mph 26.5 mph N/A Snow Light Snow
5:44 AM 28.4 °F 16.6 °F 26.6 °F 93% 29.50 in 1.8 mi NW 16.1 mph 32.2 mph N/A Snow Light Snow
6:05 AM 28.4 °F 16.6 °F 26.6 °F 93% 29.52 in 2.0 mi WNW 16.1 mph 25.3 mph N/A   Overcast
6:25 AM 28.4 °F 16.2 °F 26.6 °F 93% 29.53 in 3.0 mi WNW 17.3 mph 24.2 mph N/A   Overcast
6:45 AM 28.4 °F 16.6 °F 26.6 °F 93% 29.54 in 1.8 mi WNW 16.1 mph 25.3 mph N/A   Overcast
7:05 AM 28.4 °F 18.0 °F 24.8 °F 86% 29.55 in 1.8 mi WNW 12.7 mph 25.3 mph N/A   Overcast
7:25 AM 28.4 °F 17.0 °F 26.6 °F 93% 29.56 in 1.0 mi WNW 15.0 mph 27.6 mph N/A   Overcast
7:45 AM 28.4 °F 16.6 °F 26.6 °F 93% 29.57 in 1.0 mi WNW 16.1 mph 26.5 mph N/A   Overcast
8:05 AM 28.4 °F 17.0 °F 26.6 °F 93% 29.58 in 3.0 mi WNW 15.0 mph 20.7 mph N/A   Overcast
8:25 AM 28.4 °F 17.5 °F 26.6 °F 93% 29.59 in 1.8 mi WNW 13.8 mph 24.2 mph N/A   Overcast
8:45 AM 30.2 °F 19.3 °F 24.8 °F 80% 29.61 in 4.0 mi NW 15.0 mph 25.3 mph N/A   Overcast
9:05 AM 30.2 °F 18.9 °F 26.6 °F 86% 29.62 in 5.0 mi WNW 16.1 mph 26.5 mph N/A   Overcast
9:25 AM 30.2 °F 19.8 °F 26.6 °F 86% 29.63 in 4.0 mi WNW 13.8 mph 23.0 mph N/A   Overcast
9:45 AM 28.4 °F 16.6 °F 24.8 °F 86% 29.64 in 1.8 mi WNW 16.1 mph 25.3 mph N/A   Overcast
10:05 AM 30.2 °F 18.9 °F 24.8 °F 80% 29.65 in 2.5 mi WNW 16.1 mph 21.9 mph N/A   Overcast
10:25 AM 28.4 °F 15.8 °F 24.8 °F 86% 29.67 in 2.0 mi WNW 18.4 mph 27.6 mph N/A   Overcast
10:45 AM 28.4 °F 16.2 °F 24.8 °F 86% 29.68 in 2.0 mi WNW 17.3 mph 26.5 mph N/A   Overcast
11:05 AM 28.4 °F 15.4 °F 24.8 °F 86% 29.68 in 1.5 mi WNW 19.6 mph 26.5 mph N/A   Overcast
11:25 AM 30.2 °F 18.5 °F 24.8 °F 80% 29.69 in 2.5 mi WNW 17.3 mph 25.3 mph N/A   Overcast
11:55 AM 30.2 °F 20.2 °F 26.6 °F 86% 29.70 in 2.0 mi NW 12.7 mph 28.8 mph N/A Snow Light Snow
12:15 PM 30.2 °F 20.2 °F 26.6 °F 86% 29.71 in 2.0 mi WNW 12.7 mph 28.8 mph N/A Snow Light Snow
12:35 PM 30.2 °F 19.8 °F 26.6 °F 86% 29.71 in 1.5 mi NW 13.8 mph 25.3 mph N/A Snow Light Snow
12:55 PM 30.2 °F 19.3 °F 26.6 °F 86% 29.72 in 2.5 mi NW 15.0 mph 25.3 mph N/A Snow Light Snow
1:14 PM 30.2 °F 18.9 °F 24.8 °F 80% 29.73 in 3.0 mi NW 16.1 mph 29.9 mph N/A Snow Light Snow
1:35 PM 30.2 °F 18.9 °F 23.0 °F 75% 29.74 in 7.0 mi NW 16.1 mph 21.9 mph N/A Snow Light Snow
2:15 PM 30.2 °F 18.9 °F 23.0 °F 75% 29.75 in 4.0 mi NW 16.1 mph 21.9 mph N/A Snow Light Snow
2:35 PM 30.2 °F 19.3 °F 23.0 °F 75% 29.76 in 4.0 mi NW 15.0 mph 20.7 mph N/A Snow Light Snow
2:54 PM 30.2 °F 20.2 °F 24.8 °F 80% 29.77 in 3.0 mi NW 12.7 mph 23.0 mph N/A Snow Light Snow
3:15 PM 30.2 °F 18.9 °F 24.8 °F 80% 29.79 in 1.8 mi NW 16.1 mph 25.3 mph N/A Snow Light Snow
3:54 PM 30.2 °F 19.3 °F 26.6 °F 86% 29.81 in 2.5 mi WNW 15.0 mph 20.7 mph N/A Snow Light Snow
4:15 PM 28.4 °F 16.6 °F 24.8 °F 86% 29.83 in 1.5 mi WNW 16.1 mph 23.0 mph N/A Snow Light Snow
4:35 PM 28.4 °F 16.6 °F 23.0 °F 80% 29.84 in 2.5 mi WNW 16.1 mph 23.0 mph N/A Snow Light Snow
4:55 PM 28.4 °F 17.0 °F 23.0 °F 80% 29.85 in 4.0 mi NW 15.0 mph 20.7 mph N/A Snow Light Snow
5:14 PM 28.4 °F 18.0 °F 23.0 °F 80% 29.86 in 4.0 mi WNW 12.7 mph 20.7 mph N/A Snow Light Snow
5:35 PM 28.4 °F 18.5 °F 23.0 °F 80% 29.88 in 2.0 mi WNW 11.5 mph 17.3 mph N/A Snow Light Snow
5:55 PM 28.4 °F 19.7 °F 23.0 °F 80% 29.89 in 3.0 mi WNW 9.2 mph 18.4 mph N/A Snow Light Snow
6:15 PM 28.4 °F 19.7 °F 24.8 °F 86% 29.90 in 2.5 mi WNW 9.2 mph 18.4 mph N/A Snow Light Snow
6:35 PM 28.4 °F 19.7 °F 24.8 °F 86% 29.90 in 2.5 mi WNW 9.2 mph 17.3 mph N/A Snow Light Snow
6:55 PM 28.4 °F 17.5 °F 23.0 °F 80% 29.91 in 2.5 mi WNW 13.8 mph 19.6 mph N/A Snow Light Snow
7:14 PM 28.4 °F 21.2 °F 23.0 °F 80% 29.92 in 5.0 mi WNW 6.9 mph - N/A Snow Light Snow
7:35 PM 28.4 °F 22.2 °F 23.0 °F 80% 29.92 in 10.0 mi NW 5.8 mph - N/A Snow Light Snow
7:55 PM 28.4 °F 19.1 °F 23.0 °F 80% 29.93 in 10.0 mi West 10.4 mph 17.3 mph N/A Snow Light Snow
8:15 PM 28.4 °F 19.1 °F 24.8 °F 86% 29.93 in 1.5 mi WNW 10.4 mph 17.3 mph N/A Snow Light Snow
8:35 PM 28.4 °F 19.1 °F 24.8 °F 86% 29.94 in 1.8 mi West 10.4 mph 17.3 mph N/A Snow Light Snow
8:54 PM 28.4 °F 19.1 °F 24.8 °F 86% 29.94 in 1.5 mi WNW 10.4 mph 18.4 mph N/A Snow Light Snow
9:15 PM 28.4 °F 19.7 °F 24.8 °F 86% 29.94 in 1.8 mi WNW 9.2 mph 17.3 mph N/A Snow Light Snow
9:35 PM 28.4 °F 19.7 °F 23.0 °F 80% 29.94 in 3.0 mi WNW 9.2 mph - N/A Snow Light Snow
9:54 PM 28.4 °F 19.1 °F 23.0 °F 80% 29.94 in 4.0 mi WNW 10.4 mph 16.1 mph N/A Snow Light Snow
10:15 PM 28.4 °F 19.7 °F 23.0 °F 80% 29.94 in 5.0 mi West 9.2 mph - N/A Snow Light Snow
10:34 PM 28.4 °F 19.7 °F 23.0 °F 80% 29.95 in 7.0 mi West 9.2 mph - N/A Snow Light Snow
10:55 PM 28.4 °F 18.5 °F 21.2 °F 74% 29.95 in 10.0 mi WNW 11.5 mph - N/A Snow Light Snow
11:15 PM 28.4 °F 18.5 °F 21.2 °F 74% 29.95 in 10.0 mi West 11.5 mph 16.1 mph N/A Snow Light Snow
11:34 PM 28.4 °F 19.7 °F 23.0 °F 80% 29.96 in 7.0 mi West 9.2 mph - N/A Snow Light Snow
11:55 PM 28.4 °F 20.4 °F 23.0 °F 80% 29.96 in 4.0 mi WSW 8.1 mph - N/A Snow Light Snow